Regional Weather Roundup
Issued by NWS

Home | Current Version | Previous Version | Text Only | Print | Product List | Glossary Off
Versions: 1 2 3 4 5 6 7 8 9 10 11 12 13 14 15 16 17 18 19 20 21 22 23 24 25 26 27 28 29 30 31 32 33 34 35 36 37 38 39 40 41 42 43 44 45 46 47 48 49 50

000
ASUS43 KMPX 040110
RWRMN
WEATHER ROUNDUP FOR MINNESOTA
NATIONAL WEATHER SERVICE TWIN CITIES/CHANHASSEN MN
800 PM CDT FRI JUL 03 2015


NOTE: "FAIR" INDICATES FEW OR NO CLOUDS BELOW 12,000 FEET WITH NO
SIGNIFICANT WEATHER AND/OR OBSTRUCTIONS TO VISIBILITY. N/A MEANS
CURRENT SKY AND/OR WEATHER CONDITIONS ARE NOT AVAILABLE.

MNZ060>063-068>070-040200-
   Twin Cities Metro

CITY           SKY/WX    TMP DP  RH WIND       PRES   REMARKS
TWIN CITIES    PTCLDY    77  58  51 SW7       29.90S
ST PAUL        CLEAR     75  60  59 SW8       29.90S
CRYSTAL        PTCLDY    78  58  49 SW7       29.89R
LAKEVILLE      PTCLDY    72  59  64 CALM      29.92S
EDEN PRAIRIE   PTCLDY    74  61  63 SW6       29.90S
SOUTH ST PAUL  PTCLDY    76  58  53 SW5       29.90S
LAKE ELMO      FAIR      73  61  64 SW6       29.91S
$$
MNZ001>005-007-008-013>017-022>024-027-028-040200-
   Northwest Minnesota

CITY           SKY/WX    TMP DP  RH WIND       PRES   REMARKS
BEMIDJI        SUNNY     74  60  62 CALM      29.92R
HALLOCK        SUNNY     75  64  69 CALM      29.89S HAZE
ROSEAU         MOSUNNY   77  64  65 CALM      29.90S
WARROAD        SUNNY     75  63  64 E5        29.91S
THIEF RVR FALL MOSUNNY   73  64  73 W3        29.91S
CROOKSTON      MOSUNNY   75  61  60 CALM      29.91S HAZE
FOSSTON        MOSUNNY   72  61  68 CALM      29.92S HAZE
DETROIT LAKES  SUNNY     75  61  60 CALM      29.94R HAZE
MOORHEAD       SUNNY     77  64  65 NE3       29.91R HAZE
PARK RAPIDS    CLOUDY    77  59  53 N6        29.92S HAZE
MAHNOMEN       FAIR      74  63  70 CALM      29.91S HAZE
$$
MNZ006-009>011-018-025>026-040200-
   North Central Minnesota

CITY           SKY/WX    TMP DP  RH WIND       PRES   REMARKS
BAUDETTE       SUNNY     74  59  59 NW3       29.90S
FLAG ISLAND    SUNNY     75  57  53 CALM      29.89S
INTL FALLS     SUNNY     76  54  46 NE3       29.90R
WASKISH        SUNNY     75  55  50 CALM      29.91S
BIG FORK       MOSUNNY   73  59  60 CALM      29.91R
LONGVILLE      SUNNY     73  61  64 CALM      29.91S HAZE
GRAND RAPIDS   CLEAR     75  54  46 NW6       29.91S
CRANE LAKE     PTCLDY    73  52  46 N3        29.91R
ORR            CLEAR     73  54  49 CALM      29.88S
COOK           CLEAR     73  54  49 CALM      29.90S
WALKER         FAIR      72  63  72 CALM      29.91S
$$
MNZ012-019>021-037-040200-
   Northeast Minnesota

CITY           SKY/WX    TMP DP  RH WIND       PRES   REMARKS
DULUTH         PTCLDY    75  58  55 N6        29.88S SMOKE
ELY            CLEAR     73  48  40 CALM      29.89S
HIBBING        CLEAR     75  56  51 N5        29.89S
DULUTH HARBOR  CLEAR     73  63  68 N3        29.86R
TWO HARBORS    CLEAR     75  63  64 NW1       29.85S
SILVER BAY     PTCLDY    73  59  60 CALM      29.85R
GRAND MARAIS     N/A     55  47  74 NE7       29.83R
G MARAIS ARPRT PTCLDY    70  50  49 NW3       29.90R
$$
MNZ029>031-032-039>041-046>048-054>057-064-040200-
   West Central Minnesota

CITY           SKY/WX    TMP DP  RH WIND       PRES   REMARKS
FERGUS FALLS   MOSUNNY   79  63  57 CALM      29.90S HAZE
WHEATON        PTSUNNY   75  64  69 CALM      29.92S HAZE
MORRIS         PTSUNNY   79  64  61 CALM      29.90S HAZE
ALEXANDRIA     PTSUNNY   76  64  66 NW3       29.93S HAZE
ELBOW LAKE     FAIR      77  64  63 CALM      29.91R HAZE
WADENA         SUNNY     73  63  68 N3        29.92S HAZE
GLENWOOD       PTSUNNY   75  64  69 CALM      29.93R HAZE
APPLETON       PTSUNNY   81  64  57 CALM      29.90S HAZE
BENSON         PTSUNNY   77  66  69 CALM      29.90S HAZE
ORTONVILLE     PTSUNNY   79  64  61 CALM      29.91S HAZE
MADISON        MOSUNNY   77  66  69 NE3       29.91S HAZE
WILLMAR        FAIR      79  68  69 CALM      29.92S
$$
MNZ033>034-036-042>043-049>051-058-059-040200-
   Central Minnesota

CITY           SKY/WX    TMP DP  RH WIND       PRES   REMARKS
ST CLOUD       CLOUDY    77  65  66 NW5       29.89S HAZE
SAUK CENTRE    FAIR      76  64  66 NW3       29.91S HAZE
PAYNESVILLE    MOSUNNY   73  66  79 SW3       29.91S HAZE
AITKIN         CLEAR     75  61  60 CALM      29.89S HAZE
PINE RIVER       N/A     75  61  60 CALM      29.95R HAZE
BRAINERD       CLOUDY    76  61  59 N5        29.91S HAZE
STAPLES        SUNNY     75  61  60 NW3       29.91S HAZE
LONG PRAIRIE   CLOUDY    73  64  73 CALM      29.92S HAZE
LITTLE FALLS   CLOUDY    75  63  64 CALM      29.90S HAZE
LITCHFIELD     PTCLDY    75  64  69 CALM      29.92S
BUFFALO        PTCLDY    76  62  62 S3        29.91S
MAPLE LAKE     PTCLDY    76  65  67 CALM      29.90S
$$
MNZ037-044-045-052-053-040200-
   East Central Minnesota

CITY           SKY/WX    TMP DP  RH WIND       PRES   REMARKS
PRINCETON      PTCLDY    77  66  69 CALM      29.89S
MORA           CLEAR     72  63  73 CALM      29.90S HAZE
CAMBRIDGE      CLEAR     79  63  57 SW3       29.88R
RUSH CITY      PTCLDY    75  65  71 CALM      29.89S
MOOSE LAKE     PTCLDY    73  63  68 NW3       29.87R HAZE
HINCKLEY       FAIR      75  68  78 W3        29.88S HAZE
CLOQUET        CLEAR     75  57  53 NW3       29.89S HAZE
MCGREGOR       CLEAR     75  61  60 NW5       29.90R
$$
MNZ071>073-080-081-089-090-097-098-040200-
   Southwest Minnesota

CITY           SKY/WX    TMP DP  RH WIND       PRES   REMARKS
MONTEVIDEO     MOSUNNY   81  66  61 CALM      29.91S
GRANITE FALLS  MOSUNNY   78  65  65 CALM      29.92S
CANBY          CLOUDY    78  68  70 CALM      29.92S
MARSHALL       MOSUNNY   79  64  61 S5        29.91S
REDWOOD FALLS  PTCLDY    78  62  57 CALM      29.91S
OLIVIA         PTCLDY    73  61  64 CALM      29.91S
PIPESTONE      PTSUNNY   75  64  69 W5        29.95F
WINDOM         PTCLDY    77  59  53 CALM      29.94S
WORTHINGTON    PTCLDY    73  59  60 SW7       29.96S
JACKSON        PTCLDY    73  59  60 SW5       29.96S
TRACY          MOSUNNY   78  66  66 CALM      29.93F
SLAYTON        PTSUNNY   76  63  64 CALM      29.95F
$$
MNZ065>067-074>077-082>085-091>093-040200-
   South Central Minnesota

CITY           SKY/WX    TMP DP  RH WIND       PRES   REMARKS
MANKATO        PTCLDY    75  57  53 SW3       29.92F
NEW ULM        PTCLDY    75  57  53 CALM      29.92S
ST JAMES       PTCLDY    77  61  57 CALM      29.93F
FAIRMONT       PTCLDY    75  54  46 CALM      29.94S
GLENCOE        PTCLDY    76  64  65 CALM      29.91S
FARIBAULT      PTCLDY    72  61  68 CALM      29.93S
OWATONNA       PTCLDY    72  57  60 SW3       29.93F
WASECA         PTCLDY    72  61  68 CALM      29.94F
ALBERT LEA     PTCLDY    73  54  49 CALM      29.94S
$$
MNZ078>079-086>088-094>096-040200-
   Southeast Minnesota

CITY           SKY/WX    TMP DP  RH WIND       PRES   REMARKS
ROCHESTER      PTCLDY    71  56  58 W6        29.94F
RED WING       CLEAR     75  55  50 W3        29.90R
STANTON        PTCLDY    73  59  60 SW3       29.91S
DODGE CENTER   PTCLDY    70  57  64 W3        29.94S
WINONA         CLEAR     73  57  56 CALM      29.92S
AUSTIN         PTCLDY    73  54  49 W3        29.94S
PRESTON        PTCLDY    71  59  65 W3        29.95R
$$
ABBREVIATIONS USED IN REMARKS
   TC - TEMPERATURES IN CELSIUS
  WCI - WIND CHILL INDEX
   HX - HEAT INDEX
  VSB - VISIBILITY
$$


USA.gov is the U.S. government's official web portal to all federal, state and local government web resources and services.